Regional Weather Roundup
Issued by NWS Charleston, SC

Current Version | Previous Version | Text Only | Print | Product List | Glossary Off
Versions: 1 2 3 4 5 6 7 8 9 10 11 12 13 14 15 16 17 18 19 20 21 22 23 24 25 26 27 28 29 30 31 32 33 34 35 36 37 38 39 40 41 42 43 44 45 46 47 48 49 50
000 ASUS42 KCHS 290512 RWRCHS REGIONAL WEATHER ROUNDUP NATIONAL WEATHER SERVICE CHARLESTON SC 100 AM EDT SAT AUG 29 2015 NOTE: "FAIR" INDICATES FEW OR NO CLOUDS BELOW 12,000 FEET WITH NO SIGNIFICANT WEATHER AND/OR OBSTRUCTIONS TO VISIBILITY. NOT ALL STATIONS ARE QUALITY CONTROLLED BY THE NATIONAL WEATHER SERVICE. USE DATA WITH CAUTION...ESPECIALLY DEWPOINT OBSERVATIONS. SCZ027-030-031-034>040-042>050-290600- ...SOUTHEAST SOUTH CAROLINA... CITY SKY/WX TMP DP RH WIND PRES REMARKS N CHARLESTON PTCLDY 73 69 87 N6 30.14S WATERFRONT PRK N/A 78 73 84 N7 30.11F MOUNT PLEASANT FAIR 73 72 94 N3 30.14F JOHNS ISLAND FAIR 75 72 88 CALM 30.14R PINOPOLIS N/A 79 66 65 E9 30.06F MONCKS CORNER FAIR 73 66 78 CALM 30.15S SUMMERVILLE FAIR 72 72 100 CALM 30.16S BEAUFORT MCAS CLEAR 75 72 90 N5 30.13F BEAUFORT ARPT FAIR 77 73 88 N6 30.13S HILTON HEAD IS MOCLDY 81 73 78 N7 30.13S WALTERBORO CLEAR 73 70 88 NE5 30.16S ALLENDALE FAIR 73 72 94 CALM 30.15F ...SOUTHERN MIDLANDS AND PEE DEE... CITY SKY/WX TMP DP RH WIND PRES REMARKS GEORGETOWN NOT AVBL KINGSTREE NOT AVBL ORANGEBURG CLEAR 68 62 81 CALM 30.17S BARNWELL FAIR 70 66 88 CALM 30.17F AIKEN FAIR 68 59 73 E3 30.22S MANNING FAIR 64 63 94 CALM 30.17S COLUMBIA PTCLDY 68 60 75 CALM 30.17S SUMTER CLEAR 67 60 76 CALM 30.16S FLORENCE CLEAR 69 63 81 CALM 30.17S MYRTLE BEACH MOCLDY 73 64 73 N7 30.18S N MYRTLE BEACH MOCLDY 71 67 87 N5 30.16R $$ GAZ063-065-086>088-099>101-113>116-118-119-134>141-150-290600- ...SOUTHEAST GEORGIA... CITY SKY/WX TMP DP RH WIND PRES REMARKS SAVANNAH ARPT NOT AVBL HUNTER AAF PTCLDY 78 76 95 N2 30.10S FORT STEWART CLOUDY 74 72 92 N3 30.10S STATESBORO PTCLDY 74 74 100 CALM 30.15S SYLVANIA PTCLDY 74 73 97 NE3 30.16S CLAXTON NOT AVBL ...CSRA...CENTRAL AND FAR SOUTHEAST GEORGIA... CITY SKY/WX TMP DP RH WIND PRES REMARKS THOMSON PTCLDY 71 71 100 CALM 30.21S AUGUSTA-BUSH PTCLDY 71 68 90 CALM 30.15F AUGUSTA-DANIEL PTCLDY 75 65 70 E5 30.18S SWAINSBORO MOCLDY N/A N/A N/A E5 30.16S VIDALIA MOCLDY 73 70 88 NE7 30.14F EASTMAN MOCLDY 75 75 100 E5 30.16S HAZLEHURST FAIR 76 76 97 E6 30.12S ALMA CLOUDY 75 73 93 VRB3 30.11S WAYCROSS CLOUDY 78 78 99 CALM 30.11R JESUP FAIR 77 75 94 NE3 30.11S BAXLEY FAIR 77 73 88 NE6 30.12S BRUNSWICK CLOUDY 73 73 100 CALM 30.10S SAINT SIMONS CLOUDY 81 73 76 E10 30.09S $$ SCZ027-028-034-036>038-045-046-048>050-GAZ119-141-290600- ...LAKE AND SUPPLEMENTAL COASTAL OBSERVATIONS... STATION/POSITION TIME TEMP WIND PRES WAVE SWELL AIR SEA DIR/SP/G HT/PER HT/PER/DIR (UTC) (F) (DEG/KT/KT) (MB) (FT/S) (FT/S/D) UPR LAKE MARION NOT AVBL WINYAH BAY 0345 80 60/ 9 1020.0 LAKE MURRAY 0400 77 110/ 7/ 11 1021.3R ACE BASIN NERRS NOT AVBL FORT PULASKI NOT AVBL SAPELO ISLAND 0400 80 80/ 6 1019.0F $$ ANZ835-935-AMZ111-154-330-350-352-354-370-450-454-472-290600- ...C-MAN AND BUOY OBSERVATIONS... STATION/POSITION TIME TEMP WIND PRES WAVE SWELL AIR SEA DIR/SP/G HT/PER HT/PER/DIR (UTC) (F) (DEG/KT/KT) (MB) (FT/S) (FT/S/D) BUOY 41004 0450 81 84 40/ 19/ 21 1019.1F 5/ 6 2/11 BUOY 41008 0450 83 85 90/ 10/ 12 1019.4S 3/ 5 2/ 40/ 5 FOLLY BEACH CMAN 0400 80 60/ 14/ 16 1020.6F CAPERS NEARSHORE 0408 81 70/ 14/ 19 1020.6F FRIPP NEARSHORE 0400 82 60/ 14/ 17 1019.8F STATION/POSITION TIME TEMP WIND PRES WAVE SWELL AIR SEA DIR/SP/G HT/PER HT/PER/DIR (UTC) (F) (DEG/KT/KT) (MB) (FT/S) (FT/S/D) 5E ST. MARYS GA 0421 86 N/A 3/ 4 FRYING PAN BUOY 0450 80 81 60/ 17/ 21 1020.6R 6/ 6 2/100/11 BUOY 41025 0450 77 82 60/ 17/ 19 1020.7R 4/11 3/110/11 CAPE LOOKOUT NC 0400 76 20/ 15/ 19 1020.7F BUOY 41002 0450 82 84 180/ 10/ 12 1019.8F 4/11 3/100/11 BUOY 41010 0420 83 85 140/ 8/ 10 1019.6S ST AUGUSTINE FL 0500 82 86 130/ 6/ 7 1019.4F $$

USA.gov is the U.S. government's official web portal to all federal, state and local government web resources and services.